EW8601 Weather Reports


time (UTC)temp
F
wind
direction
speed
knots
gust
knots
rain 1hr
in
rain 24hr
in
rain mn
in
humidity
%
barometer
mb
20260503021511 32 335 0.0 0.0 0.00 0.01 0.01 95 1014.3
20260503020011 32 22 0.0 0.0 0.00 0.01 0.01 95 1014.4
20260503014512 32 344 0.0 0.0 0.00 0.01 0.01 95 1014.5
20260503013012 32 9 0.0 0.0 0.01 0.01 0.01 95 1014.6
20260503011509 32 267 0.0 0.0 0.01 0.01 0.01 94 1014.5
20260503010008 33 70 0.0 0.0 0.01 0.01 0.01 96 1014.5
20260503004507 32 52 0.0 0.0 0.01 0.01 0.01 95 1014.6
20260503003005 32 280 0.0 0.0 0.00 0.00 0.00 95 1014.5
20260503001503 32 295 0.0 0.0 0.00 0.00 0.00 95 1014.3
20260503000000 33 269 0.0 0.0 0.00 0.00 0.00 94 1014.4
20260502234604 34 270 0.0 0.0 0.00 0.00 0.00 95 1014.4
20260502233057 33 284 0.0 0.0 0.00 0.00 0.00 94 1014.2
20260502231554 34 278 0.0 0.0 0.00 0.00 0.00 93 1014.3
20260502230052 35 278 0.0 0.0 0.00 0.00 0.00 94 1014.2
20260502224557 35 278 0.0 0.0 0.00 0.00 0.00 94 1014.2
20260502223049 35 269 0.0 0.0 0.00 0.00 0.00 92 1014.1
20260502221557 37 264 0.0 0.0 0.00 0.00 0.00 91 1014.2
20260502220058 38 301 0.0 0.0 0.00 0.00 0.00 91 1014.1
20260502214546 38 291 0.0 0.0 0.00 0.00 0.00 91 1014.1
20260502213045 38 299 0.0 0.0 0.00 0.00 0.00 90 1014.2
20260502211545 39 278 0.0 0.0 0.00 0.00 0.00 89 1014.3
20260502210048 39 248 0.0 0.0 0.00 0.00 0.00 87 1014.3
20260502204544 39 248 0.0 0.0 0.00 0.00 0.00 86 1014.3
20260502203040 39 269 0.0 0.0 0.00 0.00 0.00 86 1014.5
20260502201545 39 260 0.0 0.0 0.00 0.00 0.00 88 1014.7
20260502200048 40 261 0.0 4.3 0.00 0.00 0.00 86 1014.8
20260502194540 41 264 0.0 6.1 0.00 0.00 0.00 79 1014.8
20260502193040 41 253 0.0 3.5 0.00 0.00 0.00 78 1014.8
20260502191536 42 271 0.0 1.7 0.00 0.00 0.00 76 1014.9
20260502190044 42 281 0.0 0.9 0.00 0.00 0.00 80 1015.0
20260502184534 42 241 0.0 6.1 0.00 0.00 0.00 79 1015.0
20260502183032 42 279 1.7 12.2 0.00 0.00 0.00 79 1015.0
20260502181534 42 192 2.6 11.3 0.00 0.00 0.00 83 1015.0
20260502163023 43 275 2.6 15.6 0.00 0.00 0.00 79 1015.8
20260502161519 41 288 0.0 5.2 0.00 0.00 0.00 86 1016.1
20260502151533 41 221 9.6 20.0 0.00 0.00 0.00 79 1016.9
20260502123049 40 257 5.2 15.6 0.00 0.00 0.00 68 1019.2
20260502121548 40 262 7.0 15.6 0.00 0.00 0.00 64 1019.2
20260502114541 40 248 1.7 13.9 0.00 0.00 0.00 66 1019.7
20260502113048 40 239 4.3 13.0 0.00 0.00 0.00 65 1019.7
20260502111535 39 243 0.9 13.0 0.00 0.00 0.00 68 1019.9
20260502110037 38 274 6.1 13.9 0.00 0.00 0.00 65 1020.0
20260502104532 38 275 3.5 14.8 0.00 0.00 0.00 65 1020.1
20260502103032 39 247 1.7 10.4 0.00 0.00 0.00 65 1020.4
20260502101529 39 233 3.5 12.2 0.00 0.00 0.00 64 1020.4
20260502091518 37 225 3.5 13.0 0.00 0.00 0.00 67 1021.1
20260502080105 33 137 0.0 0.0 0.00 0.00 0.00 78 1021.7
20260502064557 25 75 0.0 0.0 0.00 0.00 0.00 82 1022.2
20260502063051 24 76 0.0 0.0 0.00 0.00 0.00 83 1022.4
20260502061544 22 68 0.0 0.0 0.00 0.00 0.00 84 1022.5
20260502060042 22 82 0.0 0.0 0.00 0.00 0.00 84 1022.5
20260502054541 20 77 0.0 0.0 0.00 0.00 0.00 87 1022.6
20260502053040 20 82 0.0 0.0 0.00 0.00 0.00 86 1022.6
20260502051537 20 74 0.0 0.0 0.00 0.00 0.00 86 1022.8
20260502050040 20 90 0.0 0.0 0.00 0.00 0.00 86 1022.9
20260502044536 20 89 0.0 0.0 0.00 0.00 0.00 86 1022.9
20260502043035 20 77 0.0 0.0 0.00 0.00 0.00 87 1023.0
20260502041533 20 82 0.0 0.0 0.00 0.00 0.00 86 1023.0
20260502040031 22 82 0.0 0.0 0.00 0.00 0.00 84 1023.0
20260502034529 22 82 0.0 0.0 0.00 0.00 0.00 83 1023.1
20260502033031 23 103 0.0 0.0 0.00 0.00 0.00 82 1023.2
20260502031527 23 51 0.0 0.0 0.00 0.00 0.00 82 1023.1
20260502030027 23 74 0.0 0.0 0.00 0.00 0.00 83 1023.2
20260502024526 22 82 0.0 0.0 0.00 0.00 0.00 86 1023.2
20260502023025 22 221 0.0 0.0 0.00 0.00 0.00 85 1023.0